Weather in Vardenis

Armenia     40°11′04″N   45°43′37″E
temp.,
°C
wind,
m/s
gust,
m/s
humid.,
%
clouds,
%
prec.,
mm/h
press.,
hPa
HPBL,
m
25 january, tue
tue2501:00−12e33725 0.0 102719
04:00−13e337636 0.0 102815
07:00−9ene227784 0.0 102519
10:00−8e22832 0.1 102550
13:00−3w12641 0.0 1020408
16:00−3e22751 0.0 1020111
19:00−12e43795 0.0 102924
22:00−12e448720 0.0 102935
26 january, wed
wed2601:00−13e44825 0.0 102931
04:00−13e33815 0.0 102720
07:00−15ene22732 0.0 102812
10:00−10ene11783 0.0 102530
13:00−5wnw12725 0.0 1019204
16:00−5nnw01805 0.0 101684
19:00−13ene328123 0.0 102314
22:00−12ene2272100 0.0 102114
27 january, thu
thu2701:00−13ene2269100 0.0 102112
04:00−14ene2266100 0.0 102113
07:00−12ene2269100 0.0 101813
10:00−8e2273100 0.0 101437
13:00−4nw1267100 0.1 1010509
16:00−5n1195100 1.8 1011288
19:00−7ne2291100 1.4 101450
22:00−10ne2291100 1.9 101726
28 january, fri
fri2801:00−13ene229097 0.1 102115
04:00−14ene228570 0.1 102214
07:00−13ene229181 0.1 102319
10:00−11ene11889 0.1 102448
13:00−7wnw227737 0.0 1021325
16:00−6w247690 0.1 1020332
19:00−14e228216 0.1 102732
22:00−15ne228528 0.2 102920
29 january, sat
sat2901:00−15ene228943 0.1 103017
04:00−16ene228938 0.1 103117
07:00−16ene229038 0.0 103216
10:00−12ne12869 0.0 102957
13:00−8wnw227611 0.0 1025323
16:00−7w237536 0.0 1024282
19:00−15e128134 0.0 103118
22:00−16ne228723 0.0 103415